This is the latest recevied weather packets stored in our database for station/object KA2FNK. If no packets are shown the sender has not sent any weather packets the latest 10 day(s).
| Time | Temp. | Humidity | Pressure | Rain* | Wind** | Luminosity | Snow |
|---|---|---|---|---|---|---|---|
| 1777152132 | 23.33° C | 51% | 1008.8 hPa | 0 mm | - | - | - |
| 1777151830 | 23.89° C | 53% | 1008.8 hPa | 0 mm | - | - | - |
| 1777151530 | 23.89° C | 52% | 1008.8 hPa | 0 mm | - | - | - |
| 1777151229 | 23.89° C | 51% | 1008.8 hPa | 0 mm | - | - | - |
| 1777150927 | 23.89° C | 50% | 1008.9 hPa | 0 mm | - | - | - |
| 1777150627 | 24.44° C | 50% | 1009 hPa | 0 mm | - | - | - |
| 1777150325 | 24.44° C | 52% | 1009.1 hPa | 0 mm | - | - | - |
| 1777150024 | 24.44° C | 51% | 1009.1 hPa | 0 mm | - | - | - |
| 1777149723 | 24.44° C | 49% | 1009 hPa | 0 mm | - | - | - |
| 1777149423 | 24.44° C | 52% | 1009.1 hPa | 0 mm | - | - | - |
| 1777149122 | 24.44° C | 52% | 1009.1 hPa | 0 mm | - | - | - |
| 1777148820 | 24.44° C | 52% | 1009 hPa | 0 mm | - | - | - |
| 1777148520 | 23.89° C | 54% | 1009.1 hPa | 0 mm | - | - | - |
| 1777148218 | 23.89° C | 55% | 1009.1 hPa | 0 mm | - | - | - |
| 1777147918 | 23.89° C | 52% | 1009.1 hPa | 0 mm | - | - | - |
| 1777147615 | 23.33° C | 56% | 1009.1 hPa | 0 mm | - | - | - |
| 1777147314 | 23.33° C | 54% | 1009.2 hPa | 0 mm | - | - | - |
| 1777147013 | 23.33° C | 55% | 1009.1 hPa | 0 mm | - | - | - |
| 1777146712 | 23.33° C | 56% | 1009.2 hPa | 0 mm | - | - | - |
| 1777146410 | 22.78° C | 55% | 1009.1 hPa | 0 mm | - | - | - |
| 1777146110 | 23.33° C | 53% | 1009.2 hPa | 0 mm | - | - | - |
| 1777145809 | 23.33° C | 57% | 1009.4 hPa | 0 mm | - | - | - |
| 1777145508 | 23.33° C | 49% | 1009.6 hPa | 0 mm | - | - | - |
| 1777145207 | 23.89° C | 50% | 1009.6 hPa | 0 mm | - | - | - |
| 1777144906 | 23.89° C | 49% | 1009.6 hPa | 0 mm | - | - | - |
* Rain latest hour (hover to see other rain measurements)
** Current wind speed in m/s (hover to see current wind gust speed)